Windom, MN

3:34 PM CDT on May 28, 2017 (GMT -0500)
Windom Municipal

Weather History for KMWM - January, 2013

Change the Weather History Date:

Friday, January 4, 2013

  Actual Average Record
Temperature  
Mean Temperature 19 °F -  
Max Temperature 26 °F 21 °F 45 °F (1962)
Min Temperature 12 °F 2 °F -20 °F (1960)
Degree Days  
Heating Degree Days 46    
Moisture  
Dew Point 13 °F    
Average Humidity 79    
Maximum Humidity 86    
Minimum Humidity 68    
Precipitation  
Precipitation 0.00 in - - ()
Sea Level Pressure  
Sea Level Pressure 30.07 in    
Wind  
Wind Speed 9 mph (SW)    
Max Wind Speed 17 mph    
Max Gust Speed 22 mph    
Visibility 10 miles    
Events      
Averages and records for this station are not official NWS values.
T = Trace of Precipitation, MM = Missing Value Source: NWS Daily Summary

Daily Weather History Graph

Daily Weather History Graph

Search for Another Location

Airport or City:

Trip Planner

Search our weather history database for the weather conditions in past years. The results will help you decide how hot, cold, wet, or windy it might be!

Date:

Astronomy

Jan. 04, 2013 Rise Set
Actual Time 7:54 AM CST 4:56 PM CST
Civil Twilight 7:22 AM CST 5:29 PM CST
Nautical Twilight 6:45 AM CST 6:05 PM CST
Astronomical Twilight 6:11 AM CST 6:40 PM CST
Moon No Moon Rise 11:22 AM CST (1/4)
Length of Visible Light 10h 07m
Length of Day
9h 01m
Waning Gibbous, 55% of the Moon is Illuminated
Jan 4
Waning Gibbous
Jan 4
Last Quarter
Jan 11
New
Jan 18
First Quarter
Jan 26
Full

Hourly Weather History & Observations

Time (CST) Temp. Windchill Dew Point Humidity Pressure Visibility Wind Dir Wind Speed Gust Speed Precip Events Conditions
12:12 AM 17.6 °F 4.3 °F 14.0 °F 86% 30.10 in 10.0 mi SW 12.7 mph - N/A   Clear
12:33 AM 17.6 °F 5.0 °F 14.0 °F 86% 30.09 in 10.0 mi SW 11.5 mph - N/A   Clear
12:52 AM 17.6 °F 5.0 °F 14.0 °F 86% 30.09 in 10.0 mi SW 11.5 mph - N/A   Clear
1:12 AM 19.4 °F 6.6 °F 14.0 °F 80% 30.08 in 10.0 mi SW 12.7 mph - N/A   Clear
1:33 AM 19.4 °F 6.6 °F 14.0 °F 80% 30.07 in 10.0 mi SW 12.7 mph 18.4 mph N/A   Clear
1:52 AM 19.4 °F 5.5 °F 14.0 °F 80% 30.06 in 10.0 mi SW 15.0 mph 18.4 mph N/A   Clear
2:12 AM 19.4 °F 4.5 °F 14.0 °F 80% 30.05 in 10.0 mi SW 17.3 mph - N/A   Clear
2:33 AM 19.4 °F 6.6 °F 14.0 °F 80% 30.06 in 10.0 mi SW 12.7 mph - N/A   Clear
2:52 AM 19.4 °F 5.0 °F 14.0 °F 80% 30.06 in 10.0 mi SW 16.1 mph 19.6 mph N/A   Clear
3:13 AM 19.4 °F 5.5 °F 14.0 °F 80% 30.05 in 10.0 mi SW 15.0 mph 21.9 mph N/A   Clear
3:33 AM 19.4 °F 5.5 °F 14.0 °F 80% 30.05 in 10.0 mi SW 15.0 mph 21.9 mph N/A   Clear
3:52 AM 19.4 °F 6.6 °F 14.0 °F 80% 30.06 in 10.0 mi SW 12.7 mph 19.6 mph N/A   Clear
4:13 AM 19.4 °F 6.6 °F 14.0 °F 80% 30.05 in 10.0 mi SW 12.7 mph - N/A   Clear
4:33 AM 19.4 °F 6.0 °F 14.0 °F 80% 30.04 in 10.0 mi SW 13.8 mph 19.6 mph N/A   Clear
4:52 AM 19.4 °F 5.0 °F 14.0 °F 80% 30.03 in 10.0 mi SW 16.1 mph - N/A   Clear
5:12 AM 19.4 °F 8.6 °F 12.2 °F 74% 30.04 in 10.0 mi SW 9.2 mph - N/A   Clear
5:33 AM 17.6 °F 12.3 °F 12.2 °F 79% 30.05 in 10.0 mi WSW 3.5 mph - N/A   Clear
5:52 AM 15.8 °F 7.2 °F 12.2 °F 86% 30.05 in 10.0 mi SW 5.8 mph - N/A   Clear
6:12 AM 15.8 °F 6.1 °F 12.2 °F 86% 30.05 in 10.0 mi SW 6.9 mph - N/A   Clear
6:33 AM 15.8 °F 5.1 °F 10.4 °F 79% 30.05 in 10.0 mi SW 8.1 mph - N/A   Clear
6:52 AM 15.8 °F 4.2 °F 10.4 °F 79% 30.05 in 10.0 mi SW 9.2 mph - N/A   Clear
7:12 AM 15.8 °F 2.1 °F 10.4 °F 79% 30.04 in 10.0 mi SW 12.7 mph - N/A   Clear
7:33 AM 15.8 °F 2.7 °F 10.4 °F 79% 30.04 in 10.0 mi SW 11.5 mph - N/A   Clear
7:52 AM 15.8 °F 5.1 °F 10.4 °F 79% 30.05 in 10.0 mi SW 8.1 mph - N/A   Clear
8:12 AM 15.8 °F 3.4 °F 10.4 °F 79% 30.04 in 10.0 mi SW 10.4 mph - N/A   Clear
8:32 AM 15.8 °F 6.1 °F 10.4 °F 79% 30.05 in 10.0 mi WSW 6.9 mph - N/A   Clear
8:52 AM 15.8 °F 4.2 °F 10.4 °F 79% 30.06 in 10.0 mi West 9.2 mph - N/A   Clear
9:13 AM 15.8 °F 5.1 °F 10.4 °F 79% 30.07 in 10.0 mi West 8.1 mph - N/A   Clear
9:32 AM 17.6 °F 7.3 °F 10.4 °F 73% 30.08 in 10.0 mi WSW 8.1 mph - N/A   Clear
9:52 AM 17.6 °F 7.3 °F 10.4 °F 73% 30.09 in 10.0 mi WSW 8.1 mph - N/A   Clear
10:13 AM 19.4 °F 11.5 °F 10.4 °F 68% 30.09 in 10.0 mi WSW 5.8 mph - N/A   Clear
10:32 AM 19.4 °F 11.5 °F 12.2 °F 74% 30.10 in 10.0 mi WSW 5.8 mph - N/A   Clear
10:52 AM 21.2 °F 12.6 °F 12.2 °F 68% 30.10 in 10.0 mi WSW 6.9 mph - N/A   Clear
11:13 AM 21.2 °F 14.9 °F 14.0 °F 74% 30.10 in 10.0 mi WSW 4.6 mph - N/A   Clear
11:32 AM 23.0 °F - 14.0 °F 68% 30.10 in 10.0 mi Calm Calm - N/A   Clear
11:52 AM 23.0 °F 14.7 °F 15.8 °F 74% 30.09 in 10.0 mi WSW 6.9 mph - N/A   Clear
12:13 PM 23.0 °F 13.9 °F 15.8 °F 74% 30.09 in 10.0 mi WSW 8.1 mph - N/A   Clear
12:32 PM 23.0 °F 15.8 °F 15.8 °F 74% 30.09 in 10.0 mi WSW 5.8 mph - N/A   Clear
12:52 PM 24.8 °F 15.3 °F 15.8 °F 69% 30.09 in 10.0 mi WSW 9.2 mph - N/A   Clear
1:13 PM 24.8 °F 15.3 °F 15.8 °F 69% 30.08 in 10.0 mi WSW 9.2 mph - N/A   Clear
1:32 PM 26.6 °F 21.2 °F 17.6 °F 69% 30.08 in 10.0 mi WSW 4.6 mph - N/A   Clear
1:52 PM 26.6 °F 21.2 °F 17.6 °F 69% 30.08 in 10.0 mi WSW 4.6 mph - N/A   Clear
2:13 PM 26.6 °F - 17.6 °F 69% 30.07 in 10.0 mi Calm Calm - N/A   Clear
2:32 PM 26.6 °F 22.6 °F 17.6 °F 69% 30.08 in 10.0 mi SSW 3.5 mph - N/A   Clear
2:52 PM 26.6 °F - 17.6 °F 69% 30.08 in 10.0 mi Calm Calm - N/A   Clear
3:13 PM 26.6 °F 21.2 °F 17.6 °F 69% 30.07 in 10.0 mi SW 4.6 mph - N/A   Clear
3:32 PM 26.6 °F - 17.6 °F 69% 30.08 in 10.0 mi Calm Calm - N/A   Clear
3:52 PM 24.8 °F - 17.6 °F 74% 30.07 in 10.0 mi Calm Calm - N/A   Clear
4:13 PM 24.8 °F - 17.6 °F 74% 30.07 in 10.0 mi Calm Calm - N/A   Clear
4:52 PM 21.2 °F - 15.8 °F 80% 30.08 in 10.0 mi Calm Calm - N/A   Clear
5:13 PM 21.2 °F - 15.8 °F 80% 30.09 in 10.0 mi Calm Calm - N/A   Clear
5:32 PM 19.4 °F - 15.8 °F 86% 30.09 in 10.0 mi Calm Calm - N/A   Clear
5:52 PM 19.4 °F - 14.0 °F 80% 30.09 in 10.0 mi Calm Calm - N/A   Clear
6:13 PM 17.6 °F - 14.0 °F 86% 30.10 in 10.0 mi Calm Calm - N/A   Clear
6:32 PM 17.6 °F - 12.2 °F 79% 30.10 in 10.0 mi Calm Calm - N/A   Clear
6:52 PM 15.8 °F 8.6 °F 12.2 °F 86% 30.09 in 10.0 mi SSW 4.6 mph - N/A   Clear
7:13 PM 15.8 °F - 10.4 °F 79% 30.10 in 10.0 mi Calm Calm - N/A   Clear
7:32 PM 15.8 °F - 10.4 °F 79% 30.10 in 10.0 mi Calm Calm - N/A   Clear
7:52 PM 15.8 °F - 10.4 °F 79% 30.08 in 10.0 mi Calm Calm - N/A   Clear
8:12 PM 14.0 °F - 10.4 °F 86% 30.07 in 10.0 mi Calm Calm - N/A   Clear
8:32 PM 12.2 °F - 8.6 °F 85% 30.07 in 10.0 mi Calm Calm - N/A   Clear
8:53 PM 14.0 °F - 10.4 °F 86% 30.06 in 10.0 mi Calm Calm - N/A   Clear
9:12 PM 14.0 °F - 10.4 °F 86% 30.06 in 10.0 mi Calm Calm - N/A   Clear
9:32 PM 14.0 °F - 10.4 °F 86% 30.06 in 10.0 mi Calm Calm - N/A   Clear
9:53 PM 14.0 °F - 10.4 °F 86% 30.05 in 10.0 mi Calm Calm - N/A   Clear
10:12 PM 14.0 °F - 10.4 °F 86% 30.05 in 10.0 mi Calm Calm - N/A   Clear
10:32 PM 12.2 °F - 8.6 °F 85% 30.05 in 10.0 mi Calm Calm - N/A   Clear
10:53 PM 12.2 °F 6.1 °F 8.6 °F 85% 30.05 in 10.0 mi South 3.5 mph - N/A   Clear
11:12 PM 12.2 °F - 8.6 °F 85% 30.05 in 10.0 mi Calm Calm - N/A   Clear
11:32 PM 12.2 °F -1.0 °F 8.6 °F 85% 30.05 in 10.0 mi SSW 10.4 mph - N/A   Clear
11:53 PM 15.8 °F 5.1 °F 12.2 °F 86% 30.04 in 10.0 mi SSW 8.1 mph - N/A   Clear